轨道通信卫星FM12星 (ORBCOMM FM12)

导读 | 星芒AI

ORBCOMM FM12 是一颗由 ORBCOMM 公司运营的低轨卫星,主要用于物联网(IoT)和机器对机器(M2M)通信。该卫星属于 ORBCOMM 的第二代卫星星座,运行在约 750 公里的近地轨道,支持全球范围内的数据传输和远程监控服务。FM12 采用先进的通信技术,提供低功耗、广覆盖的连接方案,广泛应用于物流、运输、环境监测等领域。该卫星增强了 ORBCOMM 在全球物联网市场中的竞争力。

基本信息
目录编号:
25115
目录名称:
ORBCOMM FM 12
国际标识:
1997-084D
轨道中心:
EARTH
卫星名称:
轨道通信卫星FM12星
卫星全名:
轨道通信卫星FM12星 (ORBCOMM FM12)
卫星状态:
在轨 (已飞行10219 天)
发射日期:
1997-12-23 UTC
国别 :
(ORB)
星等 :
--
轨道信息
数据来源 国际轨道数据 AOE轨道数据
星历时间 2025-12-15T00:45:20+0800
1天前
查看轨道信息
2025-12-13T15:00:00+0800
2天前
查看轨道信息
半长轴 7116.507km 7116.521km
偏心率 0.0005279 0.0005255
轨道倾角 45.012° 45.013°
近地点辐角 43.728° 35.914°
升交点赤经 224.288° 231.044°
平近点角 316.399° 194.878°
近地点 734.615km 734.646km
远地点 742.129km 742.126km
周期 99.577分钟 99.578分钟
每日圈数 14.461138 14.461096
详细信息
固有亮度:
8
最大亮度:
6.9
平衡模式:
三轴稳定
覆盖范围:
全球
运营商:
轨道通信公司
运营商所在国:
美国
制造商(研发单位):
轨道ATK公司
制造商所在国:
美国
使用方式:
暂无
卫星简介
轨道通信FM(Orbcomm FM)是一系列低地球轨道通信卫星,由美国卫星通信公司 Orbcomm运营。 截至2015年12月,已有63颗此类卫星绕地球运行。该卫星已退役。
2D轨道图
3D轨道图
轨道高度分析图
轨道倾角分析图
轨道综合分析图
查看轨道综合分析图